User: anonymous   Login
Location: Unspecified
(0.0000°N, 0.0000°E)
Time: 22:33:57
(UTC+00:00)
Language:

Tubsat B - Orbit

View from above orbital plane
View from above orbital plane
View from above satellite
View from above satellite

Ground track
Ground track

The orbit data is extracted from the following two-line orbital elements,

1 22970U 94003B   18202.88655911 -.00000019 +00000-0 -81116-4 0  9995
2 22970 082.5641 325.1733 0015409 220.7353 254.3434 13.16959633176930
Epoch (UTC): 21 July 2018 21:16:38
Eccentricity: 0.0015409
inclination: 82.5641°
perigee height: 1184 km
apogee height: 1208 km
right ascension of ascending node: 325.1733°
argument of perigee: 220.7353°
revolutions per day: 13.16959633
mean anomaly at epoch: 254.3434°
orbit number at epoch: 17693

The dashed part of the orbit path shows where the satellite is in the earth's shadow,  

DLR